Regional Weather Roundup
Issued by NWS Goodland, KS

Home | Current Version | Previous Version | Graphics & Text | Print | Product List | Glossary On
Versions: 1 2 3 4 5 6 7 8 9 10 11 12 13 14 15 16 17 18 19 20 21 22 23 24 25 26 27 28 29 30 31 32 33 34 35 36 37 38 39 40 41 42 43 44 45 46 47 48 49 50
000
ASUS43 KGLD 230908
RWRGLD

GOODLAND FORECAST AREA HOURLY WEATHER ROUNDUP
NATIONAL WEATHER SERVICE GOODLAND KS
200 AM MST THU FEB 23 2017

...OFFICIAL OBSERVATIONS...

CITY           SKY/WX    TMP DP  RH WIND       PRES   REMARKS
GOODLAND KS    CLOUDY    40  27  59 E15       29.65F
HILL CITY KS   CLOUDY    45  32  60 E13       29.69F
IMPERIAL NEB   CLOUDY    37  32  82 NE22      29.72F
MCCOOK NEB     PTCLDY    37  32  82 NE13      29.72S
AKRON CO       CLOUDY    32  29  88 E26G33    29.64F WCI  18
BURLINGTON CO  CLOUDY    40  24  53 E15       29.62F
LIMON CO       CLOUDY    22  15  75 NW5       29.62F
$$

...UNOFFICIAL OBSERVATIONS...

CITY           SKY/WX    TMP DP  RH WIND       PRES   REMARKS
LENORA KS        N/A     40  32  73 CALM        N/A
NORTON KS      CLEAR     39  28  65 NE13      29.70F
SHARON SPRINGS   N/A     45  29  52 E18         N/A
TRENTON NEB      N/A     37  32  82 NE10        N/A
KIT CARSON CO    N/A     41  25  52 MISG        N/A
YUMA CO        FAIR      32  28  86 NE18      29.67F
$$



USA.gov is the U.S. government's official web portal to all federal, state and local government web resources and services.